Presure
103 105 96 96 116 114 87 103 93 115 108 96 98 107 97 116 99 123 117 126 130 110 111 120 115 115 117 95 124 119 109 129 148 143 117 102 118 112 123 97 106 120 102 120 133 152 99 122 128
116 116 97 100 103 98 111 102 112 103 96 109 106 114 104 106 120 107 116 127 101 106 122 95 125 113 117 112 104 113 113 110 76 104 123 109 110 123 89 104 110 103 147 139 138 136 78 128 110
114 113 105 107 109 116 109 95 101 102 106 114 107 107 93 122 118 130 101 114 102 115 114 118 104 105 110 105 92 139 120 142 114 128 102 96 96 95 132 118 121 132 137 137 133 129 104 104 141
108 107 103 98 96 97 101 101 104 113 110 105 99 104 109 90 116 105 115 109 112 118 102 139 91 107 125 147 133 123 90 110 114 103 140 131 113 116 114 115 103 107 109 134 133 111 111 110 125
112 107 107 100 100 102 103 99 100 102 107 101 116 106 107 108 103 120 113 116 103 98 115 96 103 123 104 127 112 135 119 141 128 142 137 112 110 107 103 98 140 96 105 104 144 174 78 133 139
102 102 94 104 104 103 102 108 108 115 116 123 122 114 118 115 121 119 122 122 95 125 103 115 136 131 141 134 117 124 126 148 113 130 120 131 151 126 192 116 110 95 167 116 110 114 115 160 126
105 108 102 105 107 101 103 117 117 105 113 123 123 115 117 118 118 118 128 125 116 122 129 139 134 146 139 112 140 157 168 111 150 164 156 161 150 154 216 233 219 212 73 197 131 132 163 154 86
116 122 121 118 124 106 111 111 110 118 115 115 123 115 124 118 143 121 114 121 126 142 133 103 133 130 113 141 121 123 133 124 129 144 155 218 243 94 92 76 201 205 134 238 128 201 206 144 207
117 118 120 116 117 116 107 109 111 112 124 121 122 128 130 127 115 123 126 134 148 107 134 132 117 108 103 132 144 134 156 112 93 117 240 199 113 217 212 117 241 167 281 181 222 203 195 209 199
115 115 116 116 113 112 112 114 119 122 120 136 126 124 117 125 135 150 128 123 142 148 126 135 125 123 126 109 116 68 125 89 95 203 164 215 158 214 273 227 259 117 230 239 266 244 228 228 121
116 114 111 115 111 117 118 121 122 113 121 124 128 125 139 120 127 126 143 138 149 123 141 102 115 151 100 132 163 151 133 204 211 127 224 219 217 268 282 279 272 248 265 275 261 257 125 247 266
108 119 111 109 112 112 121 121 119 117 117 135 121 126 127 118 135 139 125 121 118 131 154 126 114 85 159 167 156 148 206 210 238 217 195 283 273 233 268 287 327 341 348 341 265 250 214 223 226
116 123 118 116 115 114 115 113 125 111 123 116 130 140 139 140 144 134 120 139 134 73 137 140 148 84 157 172 112 201 128 217 236 184 225 266 260 275 312 217 315 312 327 338 360 257 218 247 219
144 134 132 116 132 135 115 115 120 122 134 141 147 142 144 122 130 102 128 137 144 119 131 131 152 115 125 159 198 208 246 238 231 224 257 261 290 267 289 292 292 241 292 219 339 365 252 251 237
129 100 127 119 135 145 146 127 140 125 108 124 124 133 124 139 120 123 106 138 142 144 152 159 107 133 151 188 211 258 230 215 193 245 283 286 284 283 283 301 296 299 313 106 334 341 372 250 231
130 137 144 139 132 127 121 129 121 126 111 130 136 126 113 132 158 153 147 87 141 159 93 172 162 173 199 219 227 219 260 247 245 285 287 292 287 298 121 309 338 365 580 590 616 404 356 315 236
150 147 136 122 126 121 143 136 136 144 137 139 149 141 126 139 134 140 126 129 129 149 151 148 169 193 213 225 241 240 255 287 277 275 277 275 281 279 324 341 373 522 519 548 573 585 487 382 252
103 110 153 123 103 151 135 122 148 144 117 139 145 133 144 139 140 74 142 147 116 132 147 146 190 224 244 243 264 252 254 275 294 283 285 286 284 317 332 359 507 487 500 524 546 530 496 450 228
139 146 113 109 112 140 104 145 133 155 147 147 134 104 124 107 155 96 147 109 84 178 192 234 217 249 255 198 251 282 268 254 272 271 269 283 299 317 340 513 476 461 485 507 529 471 464 458 273
138 119 138 127 147 145 141 143 84 148 128 147 149 143 96 138 135 149 143 139 193 184 227 211 214 213 251 246 282 269 259 269 267 273 272 285 306 332 404 495 452 448 472 495 445 440 445 447 289
136 129 126 126 118 132 141 132 130 133 108 136 140 142 134 127 96 134 154 198 234 219 209 214 254 257 241 279 264 258 269 265 265 265 277 292 306 356 509 472 434 437 462 480 423 423 429 427 312
160 153 145 151 141 137 120 126 133 135 129 135 142 139 155 144 150 120 209 214 200 202 237 253 247 236 281 265 265 270 263 264 262 266 279 292 318 470 523 450 423 429 450 447 413 410 400 409 285
165 152 154 133 131 133 138 128 145 146 118 132 163 152 103 152 215 203 197 192 210 224 210 257 241 284 274 242 257 266 270 269 269 268 278 294 345 521 518 432 416 424 437 445 404 400 403 405 279
186 170 167 164 158 156 155 135 146 138 141 155 155 159 182 202 203 200 196 220 209 195 204 217 282 258 256 253 251 255 259 263 270 264 277 301 447 526 495 418 410 418 427 432 400 394 398 409 277
215 191 182 188 172 165 161 150 161 147 185 187 180 150 177 191 203 192 196 203 208 255 266 279 256 256 241 257 254 247 250 260 267 271 278 297 548 530 469 406 407 409 415 423 395 390 397 388 271
195 195 196 203 201 198 208 198 182 178 183 181 181 180 193 163 223 211 246 188 262 190 282 252 240 233 244 248 252 248 245 256 257 277 278 302 543 528 450 399 406 395 407 424 403 399 399 374 271
197 197 202 182 184 183 185 192 197 193 181 180 183 183 205 205 187 181 186 136 201 169 253 242 229 257 235 226 234 242 248 254 249 268 284 299 537 519 438 392 390 388 406 419 436 400 399 382 269
195 184 186 178 173 174 177 171 171 193 203 184 184 113 187 204 240 174 194 210 222 264 240 237 251 234 238 233 226 226 238 244 258 258 278 291 539 512 433 389 383 382 410 425 424 413 406 329 273
203 209 215 220 188 194 185 145 180 189 201 194 200 175 224 244 190 196 211 172 244 255 242 245 241 235 235 216 236 234 231 243 249 253 265 292 466 509 432 391 381 374 410 420 411 409 407 350 281
210 211 208 246 182 263 246 186 200 190 188 221 192 199 182 219 266 219 269 269 245 240 237 227 223 189 221 219 223 227 236 235 249 260 256 275 308 512 434 395 386 372 405 409 402 397 411 314 263
Wind_Speed
21 21 16 17 24 27 12 21 13 25 22 19 21 26 23 30 26 34 31 37 38 36 39 42 35 36 39 32 46 44 39 55 60 57 48 49 53 52 59 49 58 61 51 61 66 71 45 57 60
23 23 17 21 23 21 27 23 29 23 20 27 26 31 24 28 35 30 34 39 34 37 47 29 50 40 45 41 42 46 46 48 38 49 56 51 54 60 48 62 63 57 74 71 71 70 20 61 55
26 25 22 23 25 28 28 20 26 27 29 34 29 29 21 38 36 42 29 39 30 42 45 46 37 41 45 41 41 57 49 59 46 52 54 61 61 56 65 66 70 76 79 71 69 68 51 49 73
26 25 22 21 21 22 27 28 30 33 33 32 29 33 35 24 40 36 43 42 46 52 43 57 34 47 53 62 55 46 49 45 48 57 67 66 63 64 69 71 65 65 67 84 76 64 63 61 65
31 28 27 24 25 26 28 27 29 32 35 31 39 34 36 37 37 44 44 47 45 41 48 44 47 49 48 48 50 59 47 64 58 71 68 66 71 73 74 61 80 38 55 50 80 80 27 76 72
28 28 22 29 31 30 29 34 34 36 39 41 41 38 41 42 44 43 45 47 39 52 44 49 61 56 67 60 48 63 61 75 60 67 68 75 84 76 95 67 77 46 75 65 62 62 60 58 44
34 35 30 30 34 29 30 40 40 32 37 43 43 40 41 42 43 43 49 50 46 50 59 66 60 70 68 49 69 86 90 61 85 88 88 91 90 85 99 97 89 81 12 80 82 87 61 74 23
42 43 43 44 44 34 39 38 37 43 40 40 47 40 47 44 62 46 45 48 53 69 61 45 65 57 51 75 56 62 69 69 72 87 93 116 110 30 31 34 85 87 81 82 79 78 77 46 60
42 43 44 43 45 43 37 38 41 41 50 50 50 53 56 52 43 51 57 62 70 45 66 61 51 49 50 66 77 67 87 70 47 75 121 98 57 104 96 51 95 59 71 76 72 70 75 68 63
41 40 42 43 43 43 43 45 49 51 48 58 52 52 45 53 65 69 56 53 75 80 60 68 60 66 58 58 59 29 67 42 52 120 66 110 79 107 92 84 83 54 73 69 59 57 63 61 29
43 43 40 45 44 48 49 52 53 44 52 54 58 55 70 51 60 56 77 74 83 58 79 46 56 92 49 74 101 94 83 127 126 89 122 121 117 98 93 89 84 76 75 69 65 56 23 57 60
40 48 43 42 45 46 51 52 51 50 49 67 51 59 61 51 70 75 61 57 56 69 90 61 53 35 103 111 101 100 128 129 130 118 104 100 100 99 98 86 67 62 59 67 68 60 64 60 61
47 55 50 51 50 48 49 48 60 47 57 48 65 74 78 80 84 74 61 78 75 28 82 86 92 42 103 117 70 132 73 131 125 94 108 103 102 89 73 50 71 73 67 64 64 68 68 64 65
61 61 60 51 66 69 51 51 58 60 72 78 80 79 80 59 68 43 65 81 88 61 74 70 101 67 82 112 132 135 126 125 117 109 106 79 84 79 83 81 82 63 73 57 70 69 68 69 69
65 42 61 55 71 71 72 67 76 62 48 63 63 77 61 83 56 63 43 87 94 84 103 108 63 88 106 133 136 114 125 118 111 108 87 86 86 87 89 83 86 86 88 28 78 74 78 75 75
67 74 74 76 72 67 59 71 59 65 52 73 82 66 53 79 95 97 96 42 89 107 46 123 118 127 134 131 126 126 106 109 106 83 81 80 83 87 37 90 92 94 47 44 42 85 80 85 81
76 77 77 63 64 59 77 79 82 85 86 88 90 89 71 89 76 88 74 76 74 98 104 96 124 135 133 121 120 113 104 82 84 84 83 85 88 93 93 97 100 48 45 37 34 40 77 88 86
49 53 77 62 50 79 78 62 85 86 57 90 92 80 94 88 92 25 93 102 63 80 104 100 133 125 113 113 99 102 98 81 73 76 79 84 90 95 99 102 45 45 39 31 26 39 62 76 84
86 85 54 53 52 86 50 87 84 89 93 95 85 40 69 48 105 46 98 57 39 128 129 104 116 106 103 119 100 74 78 87 75 77 83 90 95 99 101 49 41 41 32 24 16 39 56 66 96
87 60 82 72 87 87 88 89 36 92 76 97 99 94 43 91 86 104 93 94 125 86 101 113 115 112 95 97 70 74 80 73 76 79 85 92 98 103 92 40 38 35 27 15 24 35 47 58 101
82 77 73 74 61 83 91 81 75 85 54 91 93 90 86 75 49 84 102 118 90 97 110 108 94 89 93 65 73 76 68 72 77 83 90 96 101 103 53 34 34 29 20 9 23 35 44 56 100
95 94 92 93 92 93 65 77 88 92 80 91 99 96 108 103 109 56 109 101 107 107 100 92 88 92 60 67 64 63 66 71 76 83 93 99 106 76 38 28 29 23 14 7 24 35 51 58 106
96 94 96 90 85 89 92 78 100 102 73 84 110 108 39 111 100 102 103 105 99 97 103 80 84 56 55 70 61 62 70 76 81 86 95 102 105 52 28 24 23 18 9 5 25 36 44 56 105
93 96 98 99 99 101 102 90 102 93 100 108 110 110 102 95 95 95 99 84 96 103 107 88 49 54 52 55 59 62 70 77 84 86 95 105 83 40 21 22 20 13 6 5 26 35 42 50 105
82 91 93 93 96 101 103 94 107 97 96 94 96 72 97 93 90 94 95 97 95 72 61 43 49 44 57 56 59 64 71 78 87 90 95 103 50 32 16 20 17 9 4 4 25 35 41 62 104
80 81 81 81 83 86 85 88 91 94 92 89 89 90 88 89 69 82 79 93 65 97 37 45 51 60 52 56 63 69 71 81 87 96 97 106 44 28 14 18 12 8 4 1 21 30 39 65 103
76 75 75 79 78 77 76 77 80 84 85 85 85 85 67 65 88 91 64 54 90 88 42 45 60 41 50 65 60 70 76 84 82 97 102 107 41 24 14 17 12 8 4 2 9 28 37 54 102
72 73 72 77 78 77 76 80 84 78 70 80 80 41 83 74 70 56 84 78 58 31 43 43 38 50 49 55 62 65 73 80 90 92 105 105 37 22 14 16 13 10 6 2 12 22 30 80 100
68 67 70 66 67 65 69 48 74 69 56 65 62 59 56 62 75 77 71 81 41 25 37 37 40 45 51 60 62 66 69 80 85 89 100 106 61 21 14 17 13 11 7 4 13 19 24 65 96
72 72 64 44 57 45 32 57 48 57 57 35 58 54 78 51 47 63 32 22 35 34 36 46 46 59 52 55 60 65 75 77 86 95 94 105 107 21 16 18 14 12 9 5 14 17 17 77 102
Wind_Direction
264 269 274 281 272 279 284 295 286 287 290 287 291 290 289 289 292 292 290 295 293 284 284 286 297 296 296 306 295 301 292 302 292 291 294 287 290 284 293 289 282 281 284 282 291 283 282 282 289
259 262 271 276 278 287 284 293 290 292 286 287 289 289 295 294 300 294 293 294 290 291 291 303 301 299 297 297 301 296 294 296 299 294 291 291 288 289 294 285 287 285 286 286 281 286 300 282 282
262 261 261 268 272 274 283 286 290 290 292 293 294 298 309 298 295 295 296 296 297 296 296 296 298 300 299 298 310 288 291 288 286 286 284 293 292 292 292 284 285 289 288 285 281 279 285 289 283
256 259 262 266 274 277 279 282 281 285 288 293 298 298 296 296 298 301 300 301 297 291 311 283 320 300 293 292 293 286 301 281 281 275 301 294 282 281 280 279 286 287 289 285 280 282 284 285 281
263 263 262 267 270 271 273 280 283 284 286 293 286 295 295 295 297 292 295 292 299 305 290 303 298 292 287 295 281 296 285 303 288 301 298 271 267 268 273 288 279 312 297 293 278 279 301 280 276
261 262 251 272 273 272 274 278 281 281 282 282 284 288 289 290 288 289 289 289 302 290 284 287 300 301 302 300 290 296 294 306 281 295 276 280 292 283 298 285 270 301 288 287 282 291 291 283 277
266 268 265 267 269 267 270 279 282 277 282 286 287 287 288 290 291 291 295 291 289 292 299 303 305 304 306 288 307 302 301 286 302 300 300 299 293 282 301 300 301 296 323 286 278 280 280 278 311
263 268 270 271 275 275 277 281 282 285 288 289 290 289 293 289 295 295 292 291 296 301 301 284 306 306 293 304 299 298 308 291 296 299 300 310 305 292 283 301 297 295 273 279 275 275 273 272 256
260 263 267 270 273 276 279 282 285 287 291 293 294 294 296 298 288 296 297 302 295 285 305 301 295 295 294 298 302 308 298 288 311 309 310 308 306 307 302 287 294 293 286 274 271 268 265 258 259
265 267 269 272 276 279 282 285 287 290 290 290 287 297 294 298 300 300 304 300 302 301 300 307 305 302 305 294 299 333 305 305 310 312 302 310 304 306 297 297 291 276 280 278 270 261 251 247 267
268 272 273 275 277 280 282 283 286 286 292 294 296 297 295 293 302 302 300 302 301 300 304 297 303 306 298 312 308 313 294 313 313 279 310 310 307 301 298 295 290 283 279 273 266 256 273 240 224
268 270 274 275 278 280 282 283 287 289 292 291 298 298 301 296 299 300 302 300 301 307 301 306 308 294 309 309 314 314 313 314 310 311 310 307 304 301 301 297 289 283 272 266 260 249 243 235 229
268 269 272 276 280 282 283 282 288 288 293 294 297 292 293 296 297 300 300 303 310 298 307 309 310 303 311 310 311 313 298 312 310 308 311 308 307 303 297 290 288 284 277 264 258 244 239 229 225
265 268 268 277 274 276 285 286 289 291 289 286 288 293 295 300 304 298 307 308 307 309 309 310 310 315 314 317 312 313 309 311 312 314 310 307 307 302 299 296 292 286 277 269 256 246 228 222 214
268 259 272 275 274 272 274 284 281 288 288 294 295 296 294 300 297 302 300 311 306 308 307 308 311 311 320 314 313 307 313 314 317 312 312 311 306 302 299 295 288 284 278 281 260 243 232 214 211
270 269 265 270 277 281 283 284 288 291 287 289 294 298 296 299 297 298 303 299 306 307 314 310 313 312 312 312 312 314 316 315 313 316 314 312 309 307 300 298 298 293 297 287 277 245 227 214 208
261 264 270 275 274 276 278 283 285 283 290 291 289 293 294 300 298 299 300 309 312 310 314 319 314 311 313 312 313 315 316 319 317 315 312 310 309 307 312 312 309 307 303 295 275 250 229 217 202
254 261 264 266 268 272 280 279 280 284 287 290 290 297 295 299 300 310 307 306 308 318 317 317 309 313 311 313 319 316 317 320 322 320 320 317 315 322 320 317 318 310 310 298 276 235 223 219 208
264 263 263 263 268 275 275 276 286 282 284 287 293 296 300 307 300 297 305 303 313 308 308 310 312 313 316 318 317 322 321 318 321 321 320 324 326 326 322 327 319 317 316 305 274 220 215 214 194
264 262 266 271 271 273 277 278 278 283 289 287 290 294 288 301 306 304 309 314 307 310 311 310 312 313 318 318 324 322 320 323 325 329 327 332 332 329 327 327 321 324 321 306 222 212 211 209 190
262 265 267 269 269 277 276 279 282 286 285 292 293 295 300 304 293 309 307 307 310 310 310 311 319 319 319 326 322 322 330 330 333 332 335 336 335 332 336 328 323 329 326 301 212 207 205 203 189
256 260 265 267 271 274 277 279 283 285 288 290 292 296 296 299 301 308 307 309 309 309 314 316 318 319 330 325 327 336 336 338 337 339 340 340 339 338 338 329 328 334 327 242 202 200 197 198 186
255 259 261 270 271 273 275 280 279 281 284 292 288 293 294 298 304 305 304 306 311 313 314 321 321 335 334 326 334 347 350 347 346 345 345 344 342 342 340 333 335 338 327 233 199 198 198 196 184
253 255 259 262 265 269 271 278 278 284 285 285 288 291 298 302 305 304 305 309 308 311 310 320 338 333 337 338 342 353 355 353 352 349 349 349 345 347 346 339 343 343 331 216 195 196 195 196 183
259 255 258 260 262 265 269 273 275 278 282 287 289 293 294 302 305 303 303 306 310 320 324 338 334 346 327 360 356 354 358 358 357 354 353 354 351 354 351 346 350 356 344 217 196 194 195 193 183
255 257 261 265 267 271 275 275 277 279 283 288 290 293 300 295 313 308 314 313 320 314 340 334 326 326 343 360 6 5 1 3 1 359 358 358 356 1 357 355 3 11 5 228 192 191 195 191 183
254 259 262 263 267 270 275 279 281 283 284 286 291 295 302 297 302 307 314 319 309 322 334 329 328 350 341 334 356 7 7 7 2 4 2 2 0 6 6 3 10 15 26 189 196 189 195 191 184
256 255 259 262 265 269 273 274 276 286 290 288 292 303 294 303 313 313 308 313 324 337 331 331 346 337 354 357 350 350 5 8 8 6 7 6 5 14 12 10 12 17 25 142 186 184 190 187 185
267 272 274 274 266 272 274 275 279 286 294 294 293 298 322 316 300 306 312 316 324 344 332 335 344 352 2 346 7 7 2 10 9 9 11 9 8 20 18 15 16 23 27 133 175 184 187 188 187
270 273 276 275 262 266 273 273 283 287 291 307 285 311 297 321 314 314 323 325 327 333 335 334 337 331 352 354 359 5 12 9 12 14 12 14 12 24 21 18 21 24 34 135 169 184 188 186 186